Weather in Allahabad

India     25°25′29″N   81°46′15″E
temp.,
°C
wind,
m/s
gust,
m/s
humid.,
%
clouds,
%
prec.,
mm/h
press.,
hPa
HPBL,
m
26 february, fri
fri2623:30+23w34240 0.0 100780
02:30+21w34260 0.0 100675
05:30+19w46300 0.0 1006114
08:30+23w57250 0.0 1009280
11:30+33wnw69120 0.0 10081891
14:30+35wnw69100 0.0 10042615
17:30+31wnw37140 0.0 1004511
20:30+25nw23190 0.0 100652
27 february, sat
sat2723:30+23sw23210 0.0 100635
02:30+22wsw34210 0.0 100562
05:30+21w36200 0.0 1005104
08:30+25wsw46190 0.0 1008294
11:30+35wnw59140 0.0 10071454
14:30+37nw810120 0.0 10043911
17:30+33nw59160 0.0 1004836
20:30+27nnw23210 0.0 100654
28 february, sun
sun2823:30+25nnw22240 0.0 100624
02:30+23wsw12270 0.0 100626
05:30+22w33290 0.0 100765
08:30+27w222436 0.0 1010157
11:30+34n341321 0.0 10091642
14:30+36nw47120 0.0 10063855
17:30+33nnw46160 0.0 1006684
20:30+27nnw34220 0.0 100883
1 march, mon
mon123:30+24n22250 0.0 100965
02:30+22se01280 0.0 100826
05:30+21ssw23290 0.0 100846
08:30+27wsw12230 0.0 1011171
11:30+35wsw33140 0.0 10111222
14:30+38w47110 0.0 10073879
17:30+34wnw36140 0.0 1007253
20:30+28nw49190 0.0 1009202
2 march, tue
tue223:30+24nw23230 0.0 101067
02:30+21w33250 0.0 101071
05:30+19wnw23240 0.0 101060
08:30+24w35170 0.0 1013260
11:30+32w4580 0.0 10121356
14:30+36wnw5750 0.0 10082111
17:30+32nw3690 0.0 1008365
20:30+25nw34120 0.0 101069